Hourly Data Report for September 24, 2017

All times are specified in Local Standard Time (LST). Add 1 hour to adjust for Daylight Saving Time where and when it is observed.

BUCTOUCHE CDA CS
NEW BRUNSWICK

46°25'49.006" N
64°46'05.009" W
35.90 m
8100593
71666
ABT

Download Data

Hourly Data (September 2017)
Hourly Data Report for September 24, 2017
Temp Definition
°C
Dew Point Temp Definition
°C
Rel Hum Definition
%
Wind Dir Definition
10's deg

Wind Spd Definition
km/h
Visibility Definition
km
Stn Press Definition
kPa
Hmdx Definition


Wind Chill Definition


Weather Definition


TIME
00:00 14.3 10.9 80 8 5   101.23     LegendNANA
01:00 12.9 11.1 89 9 6   101.22     LegendNANA
02:00 11.5 10.1 91 8 4   101.22     LegendNANA
03:00 11.1 9.3 89 9 4   101.20     LegendNANA
04:00 9.8 8.8 94 0 1   101.23     LegendNANA
05:00 8.9 8.1 94 11 3   101.20     LegendNANA
06:00 9.4 8.6 95   0   101.22     LegendNANA
07:00 11.7 10.9 95 18 3   101.21     LegendNANA
08:00 15.4 12.2 81 16 9   101.15     LegendNANA
09:00 18.2 12.4 69 16 5   101.16     LegendNANA
10:00 19.6 13.2 67 26 8   101.07     LegendNANA
11:00 20.4 14.3 68 36 6   101.07     LegendNANA
12:00 20.9 14.1 65 35 5   100.98     LegendNANA
13:00 21.2 15.4 70 2 10   101.00 25   LegendNANA
14:00 22.6 15.7 65 4 5   100.90 27   LegendNANA
15:00 22.5 16.3 68 4 7   100.88 27   LegendNANA
16:00 20.8 15.4 71 3 13   100.91 25   LegendNANA
17:00 19.5 14.6 73 6 10   100.96     LegendNANA
18:00 18.7 14.6 77 5 5   101.04     LegendNANA
19:00 18.3 14.6 79 4 6   101.14     LegendNANA
20:00 17.7 14.0 79 3 7   101.20     LegendNANA
21:00 17.4 13.8 80 1 8   101.23     LegendNANA
22:00 16.5 13.6 83 2 10   101.24     LegendNANA
23:00 15.2 13.3 89 2 4   101.27     LegendNANA

Notes on Data Quality.

Legend

  • E = Estimated
  • M = Missing
  • NA = Not Available
  • ‡ = Partner data that is not subject to review by the National Climate Archives
Date modified: